TAN03 EGNX-EGNS

Flight info

Callsign TAN03
Flight time 0h 55m
Altitude 10000
Route TNT UQ4 VABKA DCT WAL L10 KELLY
Aircraft C414/L-SBDFGRY/S

Departure

Time 2026-04-20 14:13
Airport East Midlands Airport (EGNX)

Arrival

Time 2026-04-20 15:08
Airport Isle of Man Airport (EGNS)
Time Latitude Longitude Altitude Speed Heading
2026-04-20 14:03 52.82647 -1.33972 295 ft 0 kts 59°
2026-04-20 14:04 52.82647 -1.33971 295 ft 0 kts 59°
2026-04-20 14:07 52.82648 -1.33969 295 ft 1 kts 53°
2026-04-20 14:08 52.82690 -1.33899 297 ft 10 kts 48°
2026-04-20 14:08 52.82726 -1.33815 297 ft 8 kts 60°
2026-04-20 14:08 52.82748 -1.33748 295 ft 6 kts 61°
2026-04-20 14:08 52.82796 -1.33708 295 ft 15 kts 352°
2026-04-20 14:09 52.82904 -1.33755 298 ft 14 kts 295°
2026-04-20 14:09 52.82910 -1.33916 299 ft 14 kts 268°
2026-04-20 14:09 52.82906 -1.34115 295 ft 21 kts 267°
2026-04-20 14:09 52.82906 -1.34322 299 ft 15 kts 271°
2026-04-20 14:10 52.82905 -1.34501 298 ft 16 kts 268°
2026-04-20 14:10 52.82921 -1.34652 298 ft 3 kts 328°
2026-04-20 14:11 52.82949 -1.34667 297 ft 12 kts 353°
2026-04-20 14:11 52.83042 -1.34652 298 ft 15 kts 30°
2026-04-20 14:11 52.83072 -1.34577 297 ft 0 kts 84°
2026-04-20 14:12 52.83073 -1.34544 296 ft 6 kts 88°
2026-04-20 14:12 52.83075 -1.34351 294 ft 44 kts 89°
2026-04-20 14:12 52.83088 -1.33540 308 ft 92 kts 86°
2026-04-20 14:12 52.83113 -1.32382 455 ft 113 kts 87°
2026-04-20 14:13 52.83151 -1.30971 722 ft 130 kts 86°
2026-04-20 14:13 52.83182 -1.29385 1036 ft 146 kts 87°
2026-04-20 14:13 52.83265 -1.27658 1345 ft 154 kts 72°
2026-04-20 14:13 52.83982 -1.26389 1654 ft 160 kts 24°
2026-04-20 14:14 52.85094 -1.26248 1951 ft 163 kts 356°
2026-04-20 14:14 52.86093 -1.27155 2236 ft 171 kts 313°
2026-04-20 14:14 52.86783 -1.28763 2537 ft 173 kts 307°
2026-04-20 14:14 52.87486 -1.30387 2823 ft 174 kts 311°
2026-04-20 14:15 52.88247 -1.31939 3111 ft 173 kts 313°
2026-04-20 14:15 52.89005 -1.33478 3393 ft 172 kts 312°
2026-04-20 14:15 52.89753 -1.35008 3676 ft 170 kts 312°
2026-04-20 14:15 52.90500 -1.36531 3962 ft 171 kts 312°
2026-04-20 14:16 52.91253 -1.38058 4245 ft 171 kts 312°
2026-04-20 14:16 52.92003 -1.39593 4532 ft 172 kts 313°
2026-04-20 14:16 52.92757 -1.41123 4821 ft 171 kts 312°
2026-04-20 14:16 52.93507 -1.42649 5111 ft 171 kts 311°
2026-04-20 14:17 52.94258 -1.44177 5399 ft 171 kts 313°
2026-04-20 14:17 52.95010 -1.45715 5684 ft 172 kts 313°
2026-04-20 14:17 52.95765 -1.47261 5972 ft 173 kts 311°
2026-04-20 14:17 52.96523 -1.48808 6259 ft 173 kts 313°
2026-04-20 14:18 52.97280 -1.50354 6548 ft 173 kts 311°
2026-04-20 14:18 52.98037 -1.51903 6830 ft 173 kts 312°
2026-04-20 14:18 52.98550 -1.52950 7012 ft 174 kts 311°
2026-04-20 14:18 52.99564 -1.55023 7375 ft 175 kts 311°
2026-04-20 14:19 53.00328 -1.56593 7654 ft 175 kts 311°
2026-04-20 14:19 53.01096 -1.58167 7937 ft 176 kts 311°
2026-04-20 14:19 53.01616 -1.59235 8130 ft 176 kts 311°
2026-04-20 14:19 53.02387 -1.60815 8417 ft 176 kts 311°
2026-04-20 14:20 53.03159 -1.62400 8707 ft 177 kts 311°
2026-04-20 14:20 53.03933 -1.63991 8999 ft 178 kts 311°
2026-04-20 14:20 53.04710 -1.65590 9298 ft 178 kts 311°
2026-04-20 14:20 53.05421 -1.67268 9588 ft 179 kts 296°
2026-04-20 14:21 53.05773 -1.69254 9887 ft 179 kts 288°
2026-04-20 14:21 53.06128 -1.71295 9988 ft 190 kts 288°
2026-04-20 14:21 53.06505 -1.73464 10000 ft 200 kts 288°
2026-04-20 14:21 53.06891 -1.75730 9999 ft 206 kts 288°
2026-04-20 14:22 53.07287 -1.78053 10001 ft 210 kts 288°
2026-04-20 14:22 53.07684 -1.80396 9995 ft 212 kts 288°
2026-04-20 14:22 53.08086 -1.82759 9994 ft 213 kts 287°
2026-04-20 14:22 53.08489 -1.85127 9997 ft 213 kts 288°
2026-04-20 14:23 53.08892 -1.87499 9988 ft 214 kts 288°
2026-04-20 14:23 53.09295 -1.89887 9990 ft 215 kts 288°
2026-04-20 14:23 53.09696 -1.92256 9997 ft 211 kts 288°
2026-04-20 14:23 53.10091 -1.94595 9993 ft 209 kts 288°
2026-04-20 14:24 53.10482 -1.96911 9995 ft 208 kts 288°
2026-04-20 14:24 53.10869 -1.99216 9991 ft 206 kts 287°
2026-04-20 14:24 53.11261 -2.01542 9991 ft 206 kts 288°
2026-04-20 14:24 53.11642 -2.03804 9986 ft 206 kts 288°
2026-04-20 14:25 53.12031 -2.06126 9987 ft 205 kts 287°
2026-04-20 14:25 53.12415 -2.08415 9988 ft 205 kts 287°
2026-04-20 14:25 53.12797 -2.10703 9986 ft 205 kts 287°
2026-04-20 14:25 53.13180 -2.12992 9991 ft 206 kts 287°
2026-04-20 14:26 53.13563 -2.15284 9991 ft 205 kts 287°
2026-04-20 14:26 53.13944 -2.17573 9991 ft 205 kts 287°
2026-04-20 14:26 53.14335 -2.19850 9989 ft 204 kts 290°
2026-04-20 14:26 53.14946 -2.21968 9989 ft 203 kts 298°
2026-04-20 14:27 53.15581 -2.24066 9990 ft 203 kts 298°
2026-04-20 14:27 53.16210 -2.26179 9988 ft 204 kts 298°
2026-04-20 14:27 53.16840 -2.28292 9987 ft 203 kts 298°
2026-04-20 14:27 53.17469 -2.30407 9992 ft 203 kts 298°
2026-04-20 14:28 53.18099 -2.32518 9989 ft 204 kts 298°
2026-04-20 14:28 53.18730 -2.34636 9990 ft 205 kts 298°
2026-04-20 14:28 53.19362 -2.36764 9991 ft 205 kts 298°
2026-04-20 14:28 53.19995 -2.38895 9994 ft 205 kts 298°
2026-04-20 14:29 53.20628 -2.41027 9989 ft 205 kts 298°
2026-04-20 14:29 53.21261 -2.43158 9993 ft 204 kts 298°
2026-04-20 14:29 53.21885 -2.45265 9990 ft 204 kts 298°
2026-04-20 14:29 53.22517 -2.47399 9990 ft 204 kts 298°
2026-04-20 14:30 53.23143 -2.49520 9989 ft 204 kts 298°
2026-04-20 14:30 53.23772 -2.51642 9989 ft 204 kts 298°
2026-04-20 14:30 53.24400 -2.53770 9990 ft 204 kts 298°
2026-04-20 14:30 53.25026 -2.55894 9987 ft 204 kts 298°
2026-04-20 14:31 53.25654 -2.58021 9989 ft 204 kts 298°
2026-04-20 14:31 53.26280 -2.60148 9986 ft 204 kts 298°
2026-04-20 14:31 53.26906 -2.62273 9988 ft 204 kts 298°
2026-04-20 14:31 53.27530 -2.64400 9985 ft 204 kts 298°
2026-04-20 14:32 53.28157 -2.66535 9986 ft 205 kts 298°
2026-04-20 14:32 53.28785 -2.68671 9987 ft 205 kts 298°
2026-04-20 14:32 53.29419 -2.70836 9987 ft 205 kts 298°
2026-04-20 14:32 53.30038 -2.72951 9984 ft 205 kts 298°
2026-04-20 14:33 53.30592 -2.75172 9980 ft 205 kts 292°
2026-04-20 14:33 53.31089 -2.77402 9983 ft 205 kts 292°
2026-04-20 14:33 53.31594 -2.79626 9981 ft 204 kts 292°
2026-04-20 14:33 53.32098 -2.81847 9993 ft 204 kts 292°
2026-04-20 14:34 53.32602 -2.84073 9992 ft 204 kts 292°
2026-04-20 14:34 53.33103 -2.86293 9991 ft 204 kts 292°
2026-04-20 14:34 53.33606 -2.88520 9992 ft 205 kts 292°
2026-04-20 14:34 53.34108 -2.90747 9991 ft 204 kts 292°
2026-04-20 14:35 53.34610 -2.92972 9988 ft 204 kts 292°
2026-04-20 14:35 53.35110 -2.95197 9993 ft 204 kts 292°
2026-04-20 14:35 53.35610 -2.97425 9993 ft 204 kts 292°
2026-04-20 14:35 53.36111 -2.99655 9993 ft 205 kts 292°
2026-04-20 14:36 53.36610 -3.01883 9988 ft 205 kts 292°
2026-04-20 14:36 53.37111 -3.04117 9988 ft 205 kts 292°
2026-04-20 14:36 53.37610 -3.06350 9992 ft 205 kts 292°
2026-04-20 14:36 53.38109 -3.08580 9985 ft 205 kts 292°
2026-04-20 14:37 53.38606 -3.10805 9995 ft 203 kts 292°
2026-04-20 14:37 53.39101 -3.13003 9987 ft 201 kts 294°
2026-04-20 14:37 53.39838 -3.14955 9985 ft 198 kts 308°
2026-04-20 14:37 53.40649 -3.16826 9984 ft 198 kts 307°
2026-04-20 14:38 53.41447 -3.18712 9992 ft 199 kts 306°
2026-04-20 14:38 53.42249 -3.20596 9986 ft 199 kts 307°
2026-04-20 14:38 53.43053 -3.22477 9994 ft 199 kts 307°
2026-04-20 14:38 53.43857 -3.24365 9996 ft 199 kts 306°
2026-04-20 14:39 53.44660 -3.26251 9995 ft 199 kts 306°
2026-04-20 14:39 53.45463 -3.28137 9993 ft 199 kts 306°
2026-04-20 14:39 53.46267 -3.30030 9995 ft 199 kts 306°
2026-04-20 14:39 53.47071 -3.31921 9987 ft 199 kts 306°
2026-04-20 14:40 53.47876 -3.33815 9991 ft 199 kts 307°
2026-04-20 14:40 53.48687 -3.35728 9992 ft 199 kts 307°
2026-04-20 14:40 53.49489 -3.37619 9986 ft 199 kts 306°
2026-04-20 14:40 53.50292 -3.39514 9991 ft 199 kts 306°
2026-04-20 14:41 53.51093 -3.41407 9997 ft 199 kts 307°
2026-04-20 14:41 53.51895 -3.43302 9990 ft 199 kts 306°
2026-04-20 14:41 53.52695 -3.45196 9997 ft 199 kts 307°
2026-04-20 14:41 53.53495 -3.47089 9997 ft 199 kts 307°
2026-04-20 14:42 53.54294 -3.48984 9991 ft 199 kts 307°
2026-04-20 14:42 53.55093 -3.50878 9991 ft 199 kts 306°
2026-04-20 14:42 53.55892 -3.52774 9995 ft 199 kts 306°
2026-04-20 14:42 53.56691 -3.54671 9995 ft 199 kts 306°
2026-04-20 14:43 53.57490 -3.56570 10000 ft 199 kts 306°
2026-04-20 14:43 53.58288 -3.58469 9990 ft 199 kts 306°
2026-04-20 14:43 53.59087 -3.60368 9996 ft 199 kts 306°
2026-04-20 14:43 53.59887 -3.62275 9996 ft 199 kts 306°
2026-04-20 14:44 53.60686 -3.64176 9994 ft 199 kts 306°
2026-04-20 14:44 53.61484 -3.66083 9992 ft 199 kts 306°
2026-04-20 14:44 53.62280 -3.67985 9994 ft 198 kts 306°
2026-04-20 14:44 53.63076 -3.69883 9994 ft 198 kts 307°
2026-04-20 14:45 53.63869 -3.71777 9994 ft 198 kts 307°
2026-04-20 14:45 53.64662 -3.73677 9990 ft 198 kts 306°
2026-04-20 14:45 53.65456 -3.75579 9991 ft 198 kts 306°
2026-04-20 14:45 53.66249 -3.77478 9983 ft 198 kts 307°
2026-04-20 14:46 53.67039 -3.79375 9999 ft 198 kts 307°
2026-04-20 14:46 53.67830 -3.81273 10002 ft 198 kts 306°
2026-04-20 14:46 53.68621 -3.83172 9991 ft 198 kts 306°
2026-04-20 14:46 53.69414 -3.85079 10001 ft 198 kts 306°
2026-04-20 14:47 53.70206 -3.86985 9992 ft 199 kts 306°
2026-04-20 14:47 53.71001 -3.88897 9998 ft 199 kts 306°
2026-04-20 14:47 53.71796 -3.90813 10002 ft 199 kts 306°
2026-04-20 14:48 53.73396 -3.94671 9996 ft 199 kts 305°
2026-04-20 14:48 53.74190 -3.96588 10000 ft 199 kts 306°
2026-04-20 14:48 53.74974 -3.98484 10001 ft 200 kts 305°
2026-04-20 14:48 53.75780 -4.00432 9994 ft 200 kts 305°
2026-04-20 14:49 53.76575 -4.02358 10005 ft 200 kts 305°
2026-04-20 14:49 53.77370 -4.04282 10005 ft 200 kts 306°
2026-04-20 14:49 53.78164 -4.06206 10008 ft 200 kts 306°
2026-04-20 14:49 53.78958 -4.08132 10004 ft 200 kts 306°
2026-04-20 14:50 53.79752 -4.10060 10002 ft 200 kts 305°
2026-04-20 14:50 53.80546 -4.11989 10002 ft 200 kts 305°
2026-04-20 14:50 53.81337 -4.13913 10008 ft 200 kts 306°
2026-04-20 14:50 53.81864 -4.15193 10011 ft 199 kts 306°
2026-04-20 14:51 53.82654 -4.17118 10008 ft 199 kts 306°
2026-04-20 14:51 53.83446 -4.19047 10010 ft 199 kts 306°
2026-04-20 14:51 53.84232 -4.20965 10010 ft 198 kts 306°
2026-04-20 14:51 53.85015 -4.22875 10010 ft 197 kts 306°
2026-04-20 14:52 53.85796 -4.24783 10002 ft 197 kts 306°
2026-04-20 14:52 53.86576 -4.26690 9996 ft 197 kts 306°
2026-04-20 14:52 53.87355 -4.28592 10007 ft 196 kts 306°
2026-04-20 14:52 53.88131 -4.30492 10002 ft 196 kts 306°
2026-04-20 14:53 53.88908 -4.32396 10002 ft 197 kts 306°
2026-04-20 14:53 53.89686 -4.34303 10003 ft 196 kts 306°
2026-04-20 14:53 53.90480 -4.36218 10006 ft 195 kts 310°
2026-04-20 14:53 53.91466 -4.37743 10000 ft 195 kts 321°
2026-04-20 14:54 53.92519 -4.39256 10006 ft 196 kts 320°
2026-04-20 14:54 53.93555 -4.40771 10001 ft 198 kts 320°
2026-04-20 14:54 53.94601 -4.42293 9999 ft 198 kts 320°
2026-04-20 14:54 53.95649 -4.43816 10006 ft 198 kts 320°
2026-04-20 14:55 53.96698 -4.45340 9999 ft 199 kts 320°
2026-04-20 14:55 53.97749 -4.46870 10000 ft 199 kts 320°
2026-04-20 14:55 53.98798 -4.48397 10002 ft 198 kts 320°
2026-04-20 14:55 53.99835 -4.49908 10005 ft 196 kts 320°
2026-04-20 14:56 54.00865 -4.51410 10004 ft 195 kts 320°
2026-04-20 14:56 54.01894 -4.52910 9992 ft 195 kts 320°
2026-04-20 14:56 54.02942 -4.54440 9769 ft 203 kts 320°
2026-04-20 14:56 54.04032 -4.56032 9497 ft 209 kts 320°
2026-04-20 14:57 54.05148 -4.57664 9216 ft 213 kts 320°
2026-04-20 14:57 54.06278 -4.59318 8933 ft 216 kts 320°
2026-04-20 14:57 54.07420 -4.60990 8646 ft 217 kts 320°
2026-04-20 14:57 54.08552 -4.62699 8362 ft 218 kts 314°
2026-04-20 14:58 54.09186 -4.64994 8193 ft 214 kts 276°
2026-04-20 14:58 54.08903 -4.67392 8152 ft 207 kts 239°
2026-04-20 14:58 54.07948 -4.69167 8124 ft 201 kts 219°
2026-04-20 14:58 54.06881 -4.70682 8105 ft 199 kts 218°
2026-04-20 14:59 54.05815 -4.72174 8083 ft 198 kts 218°
2026-04-20 14:59 54.04727 -4.73693 7818 ft 207 kts 218°
2026-04-20 14:59 54.03604 -4.75249 7497 ft 205 kts 218°
2026-04-20 14:59 54.02518 -4.76771 7167 ft 200 kts 218°
2026-04-20 15:00 54.01452 -4.78259 6840 ft 197 kts 218°
2026-04-20 15:00 54.00405 -4.79738 6502 ft 195 kts 218°
2026-04-20 15:00 53.99372 -4.81217 6157 ft 193 kts 218°
2026-04-20 15:00 53.98332 -4.82702 5811 ft 192 kts 218°
2026-04-20 15:01 53.97324 -4.84152 5490 ft 192 kts 218°
2026-04-20 15:01 53.96447 -4.85862 5145 ft 193 kts 245°
2026-04-20 15:01 53.96352 -4.88106 4799 ft 195 kts 285°
2026-04-20 15:01 53.97033 -4.90045 4528 ft 190 kts 309°
2026-04-20 15:02 53.98009 -4.91488 4262 ft 187 kts 339°
2026-04-20 15:02 53.99258 -4.91976 4006 ft 183 kts 353°
2026-04-20 15:02 54.00511 -4.92325 3749 ft 181 kts 353°
2026-04-20 15:02 54.01754 -4.92405 3495 ft 178 kts
2026-04-20 15:03 54.02956 -4.92022 3225 ft 174 kts 25°
2026-04-20 15:03 54.04054 -4.91167 2965 ft 174 kts 23°
2026-04-20 15:03 54.05195 -4.90499 2704 ft 173 kts 21°
2026-04-20 15:03 54.06136 -4.89353 2508 ft 164 kts 60°
2026-04-20 15:04 54.06278 -4.87568 2505 ft 149 kts 100°
2026-04-20 15:04 54.06304 -4.85858 2500 ft 144 kts 83°
2026-04-20 15:04 54.06417 -4.84152 2488 ft 146 kts 84°
2026-04-20 15:04 54.06544 -4.82440 2487 ft 144 kts 83°
2026-04-20 15:05 54.06677 -4.80788 2452 ft 137 kts 82°
2026-04-20 15:05 54.06810 -4.79216 2251 ft 132 kts 82°
2026-04-20 15:05 54.06941 -4.77665 2046 ft 133 kts 82°
2026-04-20 15:05 54.07072 -4.76108 1828 ft 133 kts 82°
2026-04-20 15:06 54.07199 -4.74625 1615 ft 118 kts 81°
2026-04-20 15:06 54.07313 -4.73307 1425 ft 108 kts 82°
2026-04-20 15:06 54.07418 -4.72078 1259 ft 102 kts 81°
2026-04-20 15:06 54.07516 -4.70913 1104 ft 97 kts 82°
2026-04-20 15:07 54.07614 -4.69773 951 ft 99 kts 81°
2026-04-20 15:07 54.07709 -4.68593 778 ft 102 kts 82°
2026-04-20 15:07 54.07812 -4.67385 618 ft 103 kts 82°
2026-04-20 15:07 54.07913 -4.66227 431 ft 96 kts 83°
2026-04-20 15:08 54.08003 -4.65106 258 ft 96 kts 79°
2026-04-20 15:08 54.08135 -4.63996 101 ft 93 kts 81°
2026-04-20 15:08 54.08246 -4.63053 35 ft 68 kts 78°
2026-04-20 15:08 54.08320 -4.62451 34 ft 38 kts 78°
2026-04-20 15:09 54.08371 -4.62035 32 ft 34 kts 78°
2026-04-20 15:09 54.08420 -4.61658 33 ft 31 kts 77°
2026-04-20 15:09 54.08474 -4.61428 32 ft 17 kts
2026-04-20 15:09 54.08533 -4.61552 33 ft 14 kts 281°
2026-04-20 15:10 54.08544 -4.61740 34 ft 16 kts 274°
2026-04-20 15:10 54.08557 -4.61945 34 ft 21 kts 276°
2026-04-20 15:10 54.08576 -4.62190 35 ft 22 kts 278°
2026-04-20 15:10 54.08598 -4.62441 35 ft 21 kts 278°
2026-04-20 15:11 54.08618 -4.62731 34 ft 25 kts 276°
2026-04-20 15:11 54.08632 -4.62979 34 ft 17 kts 274°
2026-04-20 15:11 54.08629 -4.63146 32 ft 13 kts 279°
2026-04-20 15:11 54.08577 -4.63252 32 ft 11 kts 223°
2026-04-20 15:12 54.08537 -4.63347 32 ft 9 kts 283°
2026-04-20 15:12 54.08529 -4.63395 32 ft 1 kts 218°
2026-04-20 15:12 54.08529 -4.63416 32 ft 2 kts 316°
2026-04-20 15:12 54.08561 -4.63415 32 ft 6 kts
2026-04-20 15:13 54.08583 -4.63463 33 ft 5 kts 239°
2026-04-20 15:13 54.08559 -4.63503 33 ft 4 kts 224°
2026-04-20 15:13 54.08557 -4.63505 33 ft 0 kts 224°